Wind_Speed
46 46 46 47 49 51 52 53 52 51 50 49 48 47 46 45 43 42 40 40 39 38 38 37 36 36 36 36 36 38 39 39 37 36 36 36 35 36 35 35 34 35 36 38 43 48 52 56 57 56 53 51 49 47 46 46 46 46 47 47 45 40 37 38 42 43 42 40 40 43 43 42 41 40 40 39 39 40 39 37 34 33 34 33 31 28 27 27
49 48 47 46 47 48 50 52 53 54 53 52 51 50 49 48 47 45 44 42 41 40 39 39 38 38 38 39 38 39 39 39 40 41 40 38 37 37 37 37 36 37 36 36 38 42 47 50 53 53 52 50 48 47 46 45 45 45 45 44 40 38 40 43 44 43 41 40 40 42 43 43 42 42 42 41 41 41 37 34 34 35 35 33 30 28 28 28
52 51 50 49 48 47 47 49 50 52 54 54 54 53 52 51 50 49 47 45 44 43 41 40 39 39 39 40 40 40 40 41 41 42 42 41 41 40 39 39 39 38 38 38 37 39 42 45 48 49 49 48 47 47 47 45 45 45 44 41 38 40 44 45 43 42 41 40 40 42 42 43 43 44 43 41 41 38 34 35 37 36 35 32 29 29 30 30
53 53 53 52 50 49 48 48 48 49 51 53 54 54 54 54 53 52 50 49 47 45 44 42 41 40 40 40 41 41 42 42 42 42 43 43 43 43 43 43 42 41 40 40 40 40 40 41 44 46 47 47 47 47 47 46 45 45 43 38 39 43 45 43 42 41 40 40 40 40 41 42 42 42 41 40 38 35 36 39 38 36 34 31 30 31 32 32
54 54 54 54 53 52 50 49 48 48 49 50 51 52 54 55 55 55 53 52 51 49 47 45 43 42 41 41 41 42 43 43 42 43 43 43 44 44 44 44 43 43 43 42 42 42 41 40 41 43 45 46 46 47 46 45 44 44 41 38 41 44 43 42 41 39 39 40 39 39 39 40 40 39 39 38 35 36 40 40 37 35 33 32 32 32 33 33
55 55 55 55 55 54 53 52 50 49 48 48 49 50 51 53 54 55 55 54 54 52 50 48 46 44 43 42 41 41 43 44 42 42 44 44 44 44 44 44 44 44 44 44 44 43 43 42 41 41 43 44 44 44 44 44 44 43 40 39 41 42 41 40 40 38 38 38 37 37 37 38 38 37 38 36 35 38 40 39 37 35 33 32 32 33 34 32
57 56 55 55 55 56 55 55 53 52 50 49 49 49 49 50 52 54 55 55 55 55 53 51 49 46 45 44 43 42 43 44 43 43 43 43 43 43 44 44 44 44 44 44 45 44 44 43 42 42 42 42 42 42 42 42 43 42 41 40 41 41 40 39 39 37 37 36 36 36 36 37 38 38 39 35 35 40 40 39 38 35 34 33 33 34 34 32
57 57 57 56 55 55 56 57 56 54 52 51 50 49 49 49 50 51 53 54 55 56 55 54 51 49 47 46 44 43 44 44 44 44 44 43 42 43 43 43 43 43 43 43 43 44 43 43 42 42 41 40 40 41 41 42 42 42 41 41 41 42 41 40 39 37 37 36 37 37 37 38 39 40 39 34 36 41 41 40 38 36 35 34 34 35 35 33
58 58 57 57 56 55 56 57 58 57 55 54 52 51 50 50 50 50 51 53 54 55 56 56 54 51 49 48 46 45 45 45 45 45 45 44 42 42 43 43 42 42 42 42 42 42 42 41 41 41 40 40 41 41 42 42 42 41 41 42 42 43 42 41 40 39 38 38 38 38 39 40 42 42 38 34 38 42 41 41 39 37 35 34 35 36 36 35
60 59 58 58 57 56 55 56 57 58 57 56 55 53 52 51 50 50 50 51 52 54 55 56 56 53 51 50 48 47 47 47 46 46 46 45 43 43 44 43 43 43 43 42 42 41 41 41 41 41 41 41 41 42 43 43 42 41 41 42 43 43 44 43 42 41 41 40 41 41 41 42 43 42 36 34 38 42 43 43 40 38 36 36 37 38 38 36
60 61 60 59 58 57 57 56 56 57 58 58 57 56 54 52 52 51 50 50 51 53 54 56 56 55 53 51 51 50 49 48 48 48 47 47 46 45 45 44 44 44 44 44 44 43 42 42 42 42 42 42 42 42 43 43 43 42 42 42 43 44 45 45 44 43 43 43 43 43 44 44 44 42 34 33 40 44 45 45 41 38 37 38 39 39 38 37
58 61 62 61 60 59 58 57 56 56 57 58 59 58 57 55 54 53 52 51 51 52 54 55 56 57 55 53 53 52 50 51 51 50 49 49 48 47 47 46 45 45 45 46 46 45 45 44 43 44 44 43 43 43 44 44 44 43 43 44 44 45 46 45 45 45 45 45 44 45 47 45 44 40 34 37 43 46 46 44 41 39 38 39 40 41 39 38
52 58 61 62 61 60 60 59 57 56 56 57 58 59 60 59 57 55 54 53 52 51 52 54 56 57 56 56 56 54 53 53 53 52 51 50 49 48 48 48 47 47 46 46 47 47 46 46 46 46 45 44 44 45 45 45 45 45 45 45 45 47 47 46 46 45 45 46 45 47 49 45 43 41 37 40 44 44 45 44 42 41 40 40 41 42 41 39
43 51 57 61 62 62 61 61 59 58 57 57 57 59 60 61 60 58 56 55 54 53 52 53 56 57 57 58 58 56 55 55 55 54 53 52 51 50 50 50 49 49 48 48 47 47 47 47 47 47 47 46 45 46 47 46 47 46 46 47 47 48 48 46 46 46 45 46 45 48 49 45 43 42 40 41 43 44 45 45 44 42 42 43 42 42 41 39
35 41 49 56 60 62 62 62 61 60 58 58 57 58 59 61 62 61 59 57 56 55 54 53 55 57 58 59 59 58 58 57 57 57 55 55 54 53 52 52 51 51 50 50 49 49 49 48 48 48 48 48 47 47 48 48 48 48 49 50 49 49 49 45 45 46 46 46 46 48 50 46 43 44 42 42 44 45 45 46 46 44 44 44 43 42 41 40
33 35 40 47 55 60 62 62 62 61 60 59 58 58 58 60 61 63 62 61 59 58 57 55 55 56 58 59 60 60 60 59 59 58 57 57 56 55 54 54 53 53 52 52 52 51 50 50 50 49 49 49 48 48 49 50 51 51 51 52 50 49 48 45 44 45 45 46 47 48 51 49 45 44 44 44 45 46 47 47 47 46 45 44 43 43 42 40
33 33 34 39 46 53 59 61 62 62 61 60 60 59 59 59 61 63 64 64 62 60 60 58 56 56 58 60 60 61 62 61 60 60 59 59 58 58 57 56 55 55 54 54 54 53 53 52 51 51 50 50 49 49 51 53 53 52 51 51 48 46 46 44 42 44 44 46 47 49 53 53 48 46 46 46 47 48 48 48 48 47 46 44 43 43 42 41
33 33 33 34 38 44 52 58 61 62 61 60 60 60 60 60 61 63 64 65 64 63 62 61 59 58 57 59 61 63 63 63 62 62 62 61 60 60 59 58 57 57 56 56 55 55 55 55 54 54 53 52 52 52 53 53 51 48 46 47 45 44 44 43 42 43 45 47 49 51 55 54 50 48 47 47 48 49 49 49 48 47 46 45 44 43 43 42
36 34 33 33 34 37 43 51 57 61 62 61 61 61 61 62 62 63 64 64 65 65 65 63 63 61 59 59 62 64 64 64 64 63 63 63 62 62 61 61 60 59 59 58 58 57 57 57 57 56 55 54 53 52 50 49 47 44 44 46 45 45 45 45 44 45 47 49 50 52 55 55 51 50 48 47 49 50 50 49 48 47 46 46 45 44 43 42
38 36 35 34 33 34 37 42 49 56 60 61 61 61 62 63 63 64 65 65 64 65 67 66 65 63 61 60 61 64 65 66 66 65 65 65 65 64 63 63 62 62 61 61 60 60 59 60 58 56 55 53 52 50 49 48 48 48 47 48 48 48 48 47 47 47 48 50 51 52 55 56 53 51 49 48 49 50 50 49 48 46 46 46 45 45 43 41
39 37 36 35 34 34 35 37 41 47 54 59 61 62 63 64 64 66 67 66 64 65 66 68 67 65 63 62 62 63 66 68 67 67 67 67 67 67 66 65 64 64 63 63 63 62 62 62 58 56 55 54 53 53 52 52 52 52 51 51 51 51 49 48 49 49 49 51 52 52 55 57 54 52 50 49 49 50 49 50 48 46 46 46 45 44 43 42
41 38 36 35 35 34 35 36 37 39 46 53 58 61 63 65 65 67 69 68 65 65 65 67 69 68 65 64 64 64 66 67 68 68 68 68 68 68 68 67 67 66 65 66 65 65 65 62 58 57 57 56 56 55 55 55 54 54 54 53 53 52 51 50 50 50 50 51 52 52 55 57 55 54 52 49 49 49 48 50 49 47 45 45 44 44 44 44
44 40 37 36 35 35 35 36 36 36 39 44 51 58 62 65 66 67 70 71 68 65 65 66 68 69 68 67 66 66 66 66 68 69 69 69 69 70 70 69 69 69 69 68 67 67 66 62 59 59 60 60 59 58 58 58 57 56 56 55 54 52 52 52 51 51 52 52 52 53 55 58 56 54 53 50 49 48 47 49 49 48 46 44 44 44 45 45
46 43 39 36 35 34 35 37 36 35 36 39 43 50 57 62 65 67 70 73 72 67 65 67 68 69 69 69 70 69 68 67 69 70 70 70 70 70 71 71 71 71 70 69 69 69 67 63 63 63 63 63 62 62 61 60 59 58 57 56 54 53 53 54 54 54 54 53 53 53 55 58 56 54 53 50 49 48 47 48 48 48 48 46 45 45 45 46
46 45 42 38 36 34 34 36 36 36 36 37 38 42 48 55 61 66 69 74 77 72 66 67 68 67 68 70 71 71 71 70 69 69 70 71 71 71 72 72 73 73 70 70 71 71 68 66 66 65 65 65 65 64 62 62 61 60 59 57 56 56 56 56 56 56 56 55 53 52 56 57 55 54 53 51 48 48 48 48 48 48 48 47 46 46 46 48
47 45 43 40 37 34 34 35 35 36 36 36 37 37 40 46 53 60 67 73 78 76 69 67 68 68 68 69 69 71 74 74 70 69 71 71 72 73 73 74 74 74 72 72 74 73 70 68 68 68 67 67 67 65 63 62 63 62 60 59 59 59 58 58 57 57 58 56 54 53 55 58 57 55 54 52 50 48 48 47 47 48 48 47 47 48 49 49
48 45 44 42 39 35 33 33 34 34 35 36 37 37 37 40 44 51 60 68 77 79 72 67 69 71 70 67 68 71 75 75 71 71 72 71 73 74 75 75 74 74 73 74 76 74 70 69 70 70 69 68 68 65 63 63 65 64 61 60 60 60 60 59 59 59 59 57 57 55 54 57 60 58 53 52 52 50 48 46 46 46 46 46 48 50 50 50
51 45 44 43 40 37 34 33 31 32 34 36 38 38 38 38 40 45 51 60 71 77 74 71 71 72 70 69 69 70 73 74 74 73 72 72 74 75 76 76 75 74 74 75 76 73 72 72 71 70 71 70 68 65 64 65 66 65 62 62 62 61 62 61 61 61 60 60 60 56 54 57 60 59 54 52 52 51 49 46 44 44 45 47 49 50 50 51
53 48 45 43 41 38 36 34 31 30 32 35 37 39 40 40 40 42 47 56 64 68 73 75 74 72 71 71 72 72 72 73 74 75 74 73 74 76 76 76 75 75 75 75 75 74 75 75 73 73 73 71 69 68 68 68 68 66 65 65 64 64 63 63 64 62 62 64 61 56 56 58 59 59 57 54 52 50 48 45 43 43 44 46 47 48 49 50
55 51 47 45 42 38 35 35 34 32 31 32 34 37 40 42 42 44 49 53 52 55 65 72 75 74 73 73 74 74 73 73 74 75 75 75 75 75 75 75 76 75 76 76 76 76 77 76 76 75 74 72 71 71 70 70 69 67 67 67 65 66 66 65 65 64 65 65 59 57 59 58 59 59 57 55 51 49 48 46 44 43 43 44 44 45 47 48
54 52 50 47 44 39 35 33 33 33 32 32 33 35 38 41 44 47 49 45 41 46 55 62 69 73 72 73 75 75 74 73 73 74 75 75 75 76 76 75 76 76 76 78 77 77 78 78 78 76 75 74 73 72 72 71 70 69 69 68 67 68 67 67 67 66 67 65 59 60 61 60 60 57 53 53 51 49 50 48 45 43 41 42 43 43 44 45
55 53 51 50 46 42 37 34 32 32 32 33 33 34 36 40 44 46 46 42 42 47 49 52 60 65 67 71 74 74 73 73 73 72 72 71 71 74 75 75 75 74 75 77 76 76 78 78 77 77 76 75 74 74 74 73 72 71 70 70 69 70 70 69 69 68 68 65 62 63 63 62 60 54 51 53 52 50 49 48 48 45 43 42 41 41 43 44
56 53 51 51 48 44 39 36 34 32 31 32 33 34 36 39 43 43 43 44 48 50 49 51 55 56 59 65 69 71 72 73 74 74 72 71 70 71 73 74 75 75 76 77 77 77 78 78 78 79 78 77 77 77 76 75 74 73 72 70 70 70 70 70 70 70 69 67 65 65 65 64 60 53 52 54 54 53 51 49 49 47 43 41 40 41 41 42
56 55 52 51 49 46 41 38 36 34 32 32 33 34 36 38 40 41 41 44 49 51 51 54 56 55 55 58 61 64 66 69 73 74 75 75 74 73 73 74 74 75 75 77 79 79 79 80 81 80 80 79 78 77 76 74 74 73 70 69 70 68 67 68 70 70 69 67 67 67 68 67 61 54 52 52 54 55 53 51 49 47 44 41 41 41 39 39
57 55 54 52 50 47 45 41 38 36 34 33 33 34 35 37 39 40 41 43 48 51 53 56 58 58 58 57 58 58 57 62 67 70 74 77 78 77 76 74 73 72 71 72 76 79 80 82 81 79 79 79 78 77 76 75 75 75 73 73 73 71 68 70 71 70 69 69 69 70 70 68 62 57 54 54 56 56 55 53 51 49 46 43 43 41 38 37
57 56 55 54 51 48 46 44 41 38 36 34 34 34 34 36 38 40 42 43 47 50 53 56 59 60 62 60 59 57 54 54 58 61 67 72 75 77 77 75 73 72 71 70 72 73 73 77 80 78 77 78 77 77 77 76 76 76 77 77 75 73 73 72 72 71 71 72 72 72 71 67 63 62 59 57 57 57 57 56 53 51 48 46 45 42 39 40
58 56 55 56 53 50 47 45 43 41 39 37 36 35 34 35 37 39 42 45 47 50 52 56 59 62 65 63 62 60 57 54 52 54 59 63 68 73 75 75 74 74 73 71 71 72 71 73 76 76 76 76 76 77 76 76 76 76 78 77 74 75 76 73 71 72 72 74 74 74 72 68 66 65 61 58 58 58 58 57 55 53 51 49 46 43 42 43
60 56 56 56 55 52 49 47 45 43 42 40 38 37 35 35 36 38 42 44 47 49 52 56 59 61 65 66 65 64 63 61 57 55 57 59 64 71 72 71 70 70 70 70 71 73 73 74 75 74 72 72 73 74 75 75 76 76 77 76 76 77 77 76 75 75 75 76 77 77 75 73 71 68 62 58 59 58 58 58 56 56 55 53 50 46 45 46
62 57 56 57 56 53 51 49 47 45 44 43 41 40 38 37 36 38 40 43 45 48 51 54 58 60 64 67 67 66 65 66 65 63 63 61 61 65 67 66 65 62 61 63 66 68 69 71 76 76 73 70 70 70 72 74 75 77 78 79 79 77 76 77 77 77 76 77 77 77 77 76 72 67 62 60 60 60 58 58 57 57 57 56 53 49 47 47
65 59 57 58 57 55 54 51 49 48 46 45 44 43 42 39 37 36 39 41 42 46 48 51 55 60 63 66 68 68 68 68 67 67 68 66 62 61 61 63 66 65 62 60 60 62 63 65 72 77 77 75 75 73 71 72 73 75 76 78 80 80 78 79 79 77 77 77 78 78 79 77 71 66 65 63 63 63 61 59 58 57 58 57 54 52 49 48
67 62 58 58 58 57 56 53 50 50 48 46 46 45 44 43 39 36 38 41 41 43 46 48 52 56 60 63 65 67 69 70 70 68 68 66 63 62 61 60 63 68 69 67 65 63 63 64 68 74 79 79 78 77 73 71 70 69 67 68 70 73 74 76 77 78 78 78 79 80 81 78 72 68 67 65 64 64 62 60 59 58 58 58 56 53 52 51
69 65 60 59 59 59 58 54 51 51 49 48 48 47 45 45 42 37 37 40 42 42 44 47 49 53 58 60 62 64 68 70 70 71 70 67 63 61 57 54 55 60 64 68 69 67 64 63 63 68 73 76 77 77 76 75 73 70 69 65 61 61 65 70 75 80 81 80 78 79 81 79 74 70 69 67 66 65 63 61 60 60 60 59 58 56 54 54
70 66 62 60 60 61 60 57 53 52 51 49 49 47 46 46 42 38 37 39 42 42 43 45 47 49 54 58 60 62 65 68 69 69 69 69 67 63 58 52 49 48 52 59 63 64 66 65 64 64 67 70 74 76 76 76 76 76 76 73 67 65 66 69 75 79 80 80 79 79 82 81 75 72 71 70 68 66 65 64 62 62 61 60 60 58 57 55
71 68 64 61 61 62 62 59 56 54 52 51 50 48 47 45 41 38 38 39 41 43 42 43 44 46 50 54 59 61 64 68 69 65 63 63 64 64 64 61 55 46 44 50 55 58 64 69 68 67 69 70 73 75 77 78 78 80 81 79 77 73 68 66 66 67 71 78 80 83 85 82 75 73 73 72 70 68 68 67 66 64 63 62 61 59 58 56
73 69 65 63 62 62 61 59 58 57 54 52 51 48 47 45 41 39 39 38 40 43 44 42 42 44 48 51 56 59 62 67 71 68 64 60 57 58 64 66 65 58 48 47 51 54 59 64 68 69 71 74 77 80 82 82 81 82 82 82 81 79 75 70 66 64 68 72 76 82 86 82 76 74 75 75 73 71 70 70 69 67 65 64 62 60 59 57
75 71 68 65 65 65 62 58 57 57 55 53 51 48 45 43 41 39 39 39 39 41 44 43 42 44 46 48 52 56 58 63 70 72 70 65 58 59 63 64 65 66 59 52 51 54 56 58 62 67 69 70 74 78 78 77 77 78 78 78 79 79 78 77 75 72 68 65 69 75 79 81 79 78 79 79 77 75 73 72 71 69 67 65 64 63 61 60
76 73 68 66 67 68 66 61 57 55 54 54 53 49 44 42 40 38 38 38 39 41 43 43 42 43 45 45 48 52 55 59 65 71 74 72 66 62 62 63 64 66 66 61 56 56 59 58 57 62 66 66 67 70 73 74 75 75 74 74 75 75 76 78 80 78 72 69 71 69 68 76 80 79 80 82 80 78 76 73 72 70 68 67 66 64 63 62
77 74 68 65 67 68 66 62 58 55 53 51 52 50 46 43 40 38 38 39 39 40 42 42 41 42 43 44 47 50 53 55 60 65 71 75 76 70 64 62 64 65 66 67 63 60 63 64 60 60 63 63 63 65 68 73 78 78 76 76 74 73 75 77 78 78 76 77 77 70 67 72 75 73 75 78 79 77 73 70 69 68 68 68 66 64 63 62
76 72 67 65 66 66 64 61 58 55 52 49 49 48 46 45 42 39 40 41 40 39 40 42 41 38 40 42 45 49 51 52 56 60 65 72 78 79 75 69 65 63 64 66 67 65 64 64 64 63 62 59 57 59 62 67 74 79 80 79 76 74 74 75 76 77 77 80 79 74 73 74 72 71 71 73 75 75 70 67 66 66 66 65 64 63 62 61
73 69 65 64 66 65 62 60 57 56 53 50 48 46 45 46 44 41 42 42 41 39 38 41 40 36 37 39 42 47 48 49 52 54 57 64 71 77 83 82 76 70 66 65 68 69 66 63 62 64 64 60 54 54 58 63 69 74 78 81 79 76 74 73 74 74 75 78 78 77 79 79 74 73 73 72 74 74 71 67 66 65 65 63 63 64 64 63
70 65 61 60 63 63 61 58 56 55 54 51 49 46 45 46 44 43 44 42 40 40 39 39 39 37 38 40 42 45 44 44 47 47 49 57 64 71 78 84 86 83 77 71 71 72 72 69 64 62 65 64 57 54 57 61 65 70 75 79 81 81 78 75 74 74 75 76 76 77 81 80 74 72 72 72 72 72 70 68 65 64 63 62 63 64 65 65
65 59 54 55 61 61 58 57 56 55 54 51 49 48 48 46 44 45 46 42 38 38 37 38 38 38 39 40 40 39 38 37 40 43 46 53 60 65 70 77 86 91 90 84 79 78 79 77 71 67 69 68 63 59 58 58 64 69 70 72 77 81 82 80 77 75 74 74 74 77 79 74 68 68 69 70 72 72 71 70 68 67 65 63 63 64 66 67
Wind_Direction
257 255 253 252 252 252 251 250 248 247 245 244 243 244 244 243 242 241 240 239 237 236 235 235 234 233 233 233 234 234 234 235 236 236 237 238 238 237 237 235 232 230 228 228 228 227 226 225 223 223 223 224 225 225 225 227 229 231 234 238 240 244 246 244 242 241 241 240 239 242 245 247 248 248 248 248 248 249 250 250 245 235 229 226 225 224 225 225
258 256 255 254 252 252 252 252 252 250 248 247 245 244 244 243 243 243 242 241 240 239 237 236 235 235 235 234 234 235 234 235 235 235 237 238 238 239 238 238 236 234 231 229 228 228 227 224 222 221 220 221 223 224 225 226 228 230 233 236 238 242 244 243 243 243 244 244 243 244 245 246 247 247 247 246 246 247 246 240 231 224 223 224 223 225 228 229
256 256 256 255 254 253 252 252 252 252 252 250 248 246 245 244 244 243 242 242 241 241 240 239 237 236 236 236 235 235 235 235 235 235 236 237 237 238 239 239 238 238 237 234 231 229 228 226 225 223 222 222 222 224 225 226 228 230 232 234 237 240 242 243 245 246 246 245 244 243 244 244 244 245 245 243 243 241 233 226 223 220 221 222 223 227 231 233
256 256 255 255 254 253 253 252 251 251 252 252 251 249 247 245 244 244 243 242 242 241 241 241 240 239 238 238 237 236 236 236 236 236 236 236 236 237 237 239 239 239 239 238 236 233 230 227 227 227 225 224 223 224 225 226 228 230 232 234 237 239 240 242 244 245 245 244 243 242 242 241 241 241 240 238 235 227 221 222 221 220 222 223 224 228 232 235
259 256 255 255 254 253 253 253 252 251 251 251 252 251 249 247 245 244 243 243 243 242 241 241 241 240 240 239 238 237 237 237 236 236 236 236 235 235 235 236 238 238 239 239 238 237 235 231 228 228 228 227 225 225 226 227 228 229 232 233 234 236 238 240 241 241 241 240 240 240 239 238 237 235 232 228 220 215 219 224 222 221 224 225 227 231 234 237
260 258 256 255 254 254 252 252 252 251 250 250 250 251 251 249 247 245 243 242 243 242 241 240 240 240 240 240 239 237 237 236 235 235 235 236 235 234 235 235 236 237 238 238 237 237 237 235 232 230 229 228 227 227 227 228 228 229 230 230 231 234 234 235 236 236 236 237 237 235 233 232 229 225 221 216 211 215 222 225 223 223 225 227 231 235 238 239
259 259 258 256 254 253 253 251 251 251 251 250 249 249 250 250 249 246 244 242 241 241 241 240 239 238 238 239 238 237 236 236 234 233 234 234 234 234 234 234 235 236 236 236 236 235 234 234 234 233 231 230 230 229 229 229 229 229 229 228 228 231 231 231 231 231 231 232 231 229 226 223 221 217 213 209 211 219 223 225 226 226 226 228 232 237 240 241
259 258 258 257 255 254 253 252 250 250 250 250 249 248 248 249 249 248 245 243 241 240 240 240 239 237 237 236 236 235 234 233 232 231 232 231 231 232 232 232 232 233 233 233 233 232 232 231 231 232 232 231 231 231 230 229 229 228 227 225 225 228 229 228 228 227 226 225 225 223 219 216 217 214 210 208 214 221 225 226 228 230 230 230 232 236 238 239
259 258 258 257 256 255 253 252 250 249 249 249 250 249 248 247 248 249 247 245 241 239 238 238 238 236 235 235 233 232 231 231 230 229 230 229 227 228 229 228 229 230 230 230 229 228 228 227 226 227 228 228 228 228 228 228 228 226 224 224 224 225 227 227 226 224 222 221 221 219 215 215 217 215 210 211 217 223 228 229 229 231 233 234 234 235 236 236
259 258 257 257 257 256 254 253 252 250 248 248 248 249 249 247 247 247 248 246 243 240 237 236 236 235 234 233 232 229 229 229 228 227 227 227 225 224 226 225 224 225 226 226 226 226 224 223 222 222 223 223 224 224 226 226 226 224 223 224 224 224 226 226 225 223 222 220 219 218 216 216 218 217 212 214 221 225 229 232 231 230 233 235 236 236 236 236
259 259 258 257 257 256 255 254 253 251 249 248 247 247 248 248 247 246 246 247 245 242 238 235 234 234 233 232 231 227 226 227 226 225 225 225 223 222 223 223 222 222 223 223 224 224 223 222 222 221 221 221 221 222 224 225 225 224 225 225 225 224 225 226 225 224 223 221 220 220 218 219 220 219 216 217 223 227 229 232 234 232 232 234 236 237 237 237
259 259 258 257 256 256 255 254 253 252 251 249 247 246 246 247 247 246 245 245 245 243 240 237 233 233 232 232 230 227 225 225 225 225 224 224 223 222 222 222 221 220 220 221 222 222 222 222 222 222 222 221 221 222 223 224 225 225 226 226 226 226 226 226 226 225 225 224 223 223 221 221 222 221 220 221 224 229 232 233 235 235 234 233 235 237 237 238
262 259 258 257 257 256 255 254 253 252 251 250 249 247 246 245 245 245 245 244 244 244 242 239 235 232 231 231 230 228 224 224 225 224 224 224 223 222 222 223 223 221 220 220 221 221 222 222 223 224 224 223 223 224 224 225 226 226 227 227 227 228 228 227 228 228 227 227 227 228 225 222 223 224 225 226 227 232 236 236 235 235 235 234 234 236 237 238
269 262 259 257 257 256 255 255 254 252 251 250 249 248 247 245 244 244 244 243 243 243 242 240 236 233 231 231 231 229 226 224 225 224 223 224 224 223 223 223 223 223 223 222 222 222 222 223 223 224 225 225 225 226 227 227 228 228 228 228 228 230 230 228 230 230 230 230 230 231 230 223 223 228 229 229 230 232 235 238 236 234 234 234 235 236 237 238
279 270 263 259 256 256 255 254 254 253 251 250 249 248 248 247 245 243 242 242 242 241 242 241 238 234 232 231 231 230 228 225 225 225 224 224 224 224 224 224 224 224 224 224 224 223 224 224 224 224 225 226 226 227 229 229 230 230 231 231 230 231 232 231 232 233 232 233 233 233 233 226 224 229 231 230 231 233 234 236 237 235 233 233 235 237 239 239
287 279 270 263 259 256 254 254 254 253 252 251 249 248 247 247 246 244 242 241 241 240 240 240 239 236 233 231 231 231 230 227 226 226 225 224 224 225 225 225 225 225 225 225 226 225 225 225 225 225 226 226 227 228 229 230 230 231 232 232 232 233 234 234 234 236 236 236 236 235 235 231 227 228 232 232 231 232 233 235 236 236 234 233 235 237 239 240
294 287 279 271 264 259 255 253 253 252 252 251 250 249 247 247 247 246 243 241 240 240 239 239 239 237 234 232 231 232 231 229 228 227 227 226 225 225 225 225 225 226 226 226 226 226 227 227 227 227 227 227 227 228 230 231 231 232 234 235 235 236 237 237 237 238 239 239 239 237 236 234 231 229 230 232 232 232 233 234 236 237 237 235 235 236 239 241
304 293 286 279 272 265 259 255 252 251 251 250 250 250 248 247 246 246 244 242 240 239 239 238 238 238 235 233 232 231 232 231 229 228 228 228 227 226 226 226 226 226 227 227 227 227 227 228 228 228 228 228 229 230 231 233 234 235 237 238 238 238 238 238 238 238 239 239 239 238 236 235 235 232 230 231 233 234 234 235 236 237 238 238 237 237 238 240
315 303 293 285 279 272 265 259 254 251 250 249 249 249 248 247 246 246 245 243 241 240 239 238 237 237 236 234 233 232 232 232 231 229 229 229 229 228 228 227 227 226 227 227 228 228 228 228 228 228 229 231 232 233 235 237 238 238 238 239 238 238 237 237 237 237 238 239 239 240 239 237 237 236 234 232 232 234 235 236 236 237 239 240 240 239 239 241
324 313 302 291 284 278 272 266 259 254 251 249 248 247 247 247 247 246 245 243 242 241 240 239 237 237 237 235 234 233 232 232 232 231 230 230 230 230 229 229 228 228 227 227 228 228 228 228 228 229 231 232 233 234 235 236 237 237 236 237 238 237 237 237 238 238 239 240 240 241 241 239 238 238 237 236 233 233 235 237 237 237 239 241 242 242 241 242
329 320 310 299 290 283 277 272 265 259 254 250 248 247 246 246 246 246 245 243 242 241 241 240 238 236 236 236 235 233 233 232 232 232 231 231 230 231 230 230 230 230 229 229 229 229 230 230 229 231 231 231 232 233 233 233 235 235 235 236 237 238 238 238 239 240 240 241 241 242 242 240 239 239 238 238 237 234 234 235 236 236 239 241 243 244 244 243
332 325 317 307 296 287 281 276 271 266 259 254 250 248 247 246 245 246 246 244 241 241 241 240 239 237 236 237 236 234 233 233 233 233 233 232 232 231 231 231 231 231 231 231 230 229 230 230 230 231 231 232 232 232 233 234 234 235 236 237 237 238 240 240 241 241 242 243 242 242 243 240 239 241 239 238 239 237 235 235 235 235 238 241 243 245 246 246
334 329 321 313 303 293 285 279 274 270 266 259 254 251 249 248 246 246 247 245 242 241 241 241 240 238 237 238 237 236 234 233 233 233 234 233 233 233 232 232 232 232 232 232 232 232 231 230 230 231 231 232 232 232 233 234 234 235 237 238 238 239 241 241 242 242 242 243 243 243 244 240 238 241 241 240 240 238 238 238 236 236 237 239 241 243 245 247
335 331 325 318 309 299 289 282 277 274 270 265 260 255 251 250 249 247 247 247 243 239 239 241 241 238 238 240 239 237 235 233 233 233 234 235 234 234 234 233 234 233 233 233 233 233 232 230 230 231 232 232 232 232 233 235 235 236 237 239 239 239 240 242 242 242 242 243 243 244 246 242 239 241 242 242 242 239 239 240 239 238 238 239 240 242 244 246
336 332 327 321 313 305 295 286 281 278 274 270 267 261 256 253 251 250 249 248 246 241 238 240 241 240 239 241 241 239 238 235 233 233 234 236 236 236 235 234 234 234 234 235 235 234 232 231 231 232 232 233 234 234 234 235 236 237 237 238 240 240 240 241 242 242 243 243 243 245 248 245 240 241 242 241 242 241 240 241 241 241 241 241 241 242 243 245
339 333 328 323 316 309 301 291 284 280 278 275 271 267 264 258 254 253 251 250 248 244 240 238 240 240 239 241 241 241 241 236 234 234 234 235 236 237 236 235 235 235 235 236 236 235 233 232 233 233 233 234 234 234 235 237 237 237 237 238 239 240 241 242 242 244 244 244 243 244 248 248 242 241 242 241 241 242 242 242 243 243 243 243 243 243 243 244
340 335 328 324 319 313 305 296 289 283 279 277 274 270 267 263 260 257 254 253 250 246 243 240 239 239 239 240 240 242 242 237 235 237 236 235 237 237 238 237 236 236 235 236 237 235 234 234 235 235 235 235 235 235 236 238 239 238 238 239 240 241 242 242 243 244 245 245 244 242 245 248 245 240 241 242 242 241 241 242 244 245 245 244 243 244 245 246
340 337 329 324 321 316 309 301 294 285 278 276 275 272 268 265 264 261 258 256 251 247 247 244 241 240 239 240 240 241 243 239 238 240 239 238 238 237 238 238 237 237 237 238 238 236 235 235 236 236 236 236 235 235 236 238 239 238 237 238 239 240 241 242 243 243 244 244 243 242 243 247 246 242 241 242 242 242 242 242 244 245 246 246 244 244 246 247
339 337 331 326 323 319 314 307 299 289 280 276 275 274 272 268 265 263 262 258 253 250 249 249 247 243 240 240 240 241 241 241 241 240 240 242 240 239 239 238 238 238 238 239 238 236 235 235 235 236 237 236 236 235 235 237 239 238 237 238 239 240 241 241 242 243 243 243 242 243 244 246 247 244 243 243 242 243 244 244 244 244 245 246 246 246 247 248
339 337 333 328 324 321 317 310 303 295 286 279 275 273 273 272 268 264 262 262 261 257 253 252 251 248 243 241 241 241 240 240 241 241 242 243 242 241 241 239 239 239 238 239 239 237 236 236 236 236 237 237 237 236 236 237 238 238 238 238 239 240 241 241 242 243 244 244 242 243 244 246 247 244 245 247 246 244 244 243 243 243 244 246 246 247 248 249
339 337 333 328 325 323 319 311 304 298 291 284 278 273 271 271 269 267 267 269 269 262 256 253 252 250 247 243 241 241 241 241 240 240 242 243 243 243 242 241 241 240 240 239 239 239 238 237 236 236 237 237 238 238 238 238 239 238 238 239 239 241 241 241 242 242 243 244 243 243 244 245 246 244 244 249 249 246 245 244 243 242 243 244 245 246 248 249
338 337 333 329 326 325 321 313 305 298 292 287 282 277 273 270 269 270 273 273 266 258 256 254 252 252 250 246 243 242 242 242 241 241 242 243 244 243 243 243 242 243 243 241 239 240 240 240 239 238 237 237 237 238 239 239 239 239 239 238 239 240 240 240 241 242 244 244 243 244 244 244 245 244 243 246 248 247 246 245 244 242 241 242 243 244 246 248
337 336 334 329 326 326 322 316 309 302 294 288 284 280 275 272 271 272 272 268 262 259 258 256 254 255 254 250 247 245 244 243 242 242 242 243 243 243 243 243 242 243 243 241 240 240 240 240 239 239 238 237 238 238 239 240 240 240 240 240 240 241 241 241 242 242 243 244 244 244 245 245 244 242 241 244 246 247 246 245 244 242 241 240 241 243 244 246
335 334 333 329 326 326 323 317 312 305 298 292 286 281 278 276 275 273 269 264 262 260 258 256 254 255 255 253 250 247 246 244 242 242 242 242 242 241 241 242 242 243 243 242 241 241 240 239 238 239 239 238 239 239 239 241 242 242 241 241 241 241 242 243 243 243 243 243 243 243 243 243 243 242 241 242 244 246 246 245 244 243 241 240 240 242 243 245
334 333 331 329 327 326 322 319 314 308 303 296 290 285 282 279 277 274 269 264 261 258 256 255 254 254 253 253 252 250 249 247 245 244 243 243 242 241 240 241 241 242 242 242 243 242 242 241 239 239 240 240 240 240 240 240 241 240 240 240 240 240 242 243 243 243 243 242 241 241 242 243 244 242 240 240 241 244 246 246 246 245 243 241 241 243 245 245
335 332 330 327 327 326 322 319 316 311 306 301 295 290 285 280 277 275 271 266 262 258 255 253 253 252 250 249 250 250 249 247 246 244 244 244 243 242 241 241 240 241 241 242 242 243 243 242 240 239 240 240 241 241 240 240 241 241 240 240 241 241 242 242 243 243 243 244 242 242 243 243 244 242 240 239 241 242 245 246 247 248 247 244 243 245 248 247
335 333 328 326 326 325 321 318 315 312 309 304 300 294 287 282 279 275 273 269 264 261 256 252 249 249 249 247 245 245 244 242 241 242 243 244 244 242 241 241 241 241 242 242 243 243 243 242 240 239 240 239 239 240 240 241 241 241 241 241 241 241 241 241 243 243 243 244 245 244 244 243 242 242 240 240 241 242 244 246 247 249 250 249 248 247 248 249
335 333 328 325 325 324 321 318 316 313 310 306 303 298 291 285 281 278 274 271 269 265 261 256 251 248 248 247 244 243 242 240 239 238 239 241 243 242 242 242 242 242 242 243 243 243 244 244 242 240 240 239 238 238 238 239 240 241 241 240 241 242 242 241 242 242 242 244 245 245 244 242 241 241 241 240 241 242 243 245 247 249 251 251 251 249 248 251
334 334 328 325 324 323 320 318 317 315 311 307 305 301 295 290 285 281 277 274 271 269 265 261 257 251 247 246 245 243 242 241 239 238 238 238 239 241 242 241 241 240 239 240 242 242 243 245 244 242 241 240 239 238 237 238 240 241 241 240 240 242 242 242 242 243 243 244 245 245 245 244 242 242 242 241 241 242 242 244 246 248 250 252 252 252 250 251
333 333 329 325 323 321 319 319 318 315 311 308 306 302 298 294 288 283 280 277 273 270 267 264 260 256 250 247 246 244 242 242 240 239 239 239 238 239 240 240 239 237 235 236 238 239 239 241 243 242 242 241 240 239 238 239 240 240 241 241 242 243 243 243 243 243 243 244 245 245 245 244 243 242 242 241 241 241 242 242 244 247 250 253 254 255 255 254
332 332 329 325 322 320 318 318 317 314 311 309 306 302 300 295 291 287 283 279 275 271 268 265 261 259 254 250 247 245 243 242 241 239 238 238 238 238 238 239 239 238 236 235 235 235 236 238 241 242 242 242 242 241 240 240 240 239 238 240 243 245 246 246 246 245 245 245 245 245 246 244 243 242 242 241 241 242 242 243 244 246 249 252 254 255 256 256
330 331 329 325 322 320 317 317 317 313 311 309 305 303 300 296 293 290 285 281 278 273 269 266 262 259 257 252 248 245 244 243 241 240 239 237 236 235 235 236 238 238 238 237 236 235 236 237 238 240 242 242 242 241 240 239 239 238 236 234 235 238 241 244 246 246 246 246 246 247 247 244 242 242 243 242 242 243 244 244 244 246 248 250 252 254 255 255
328 329 328 325 322 319 316 317 316 312 310 308 305 302 299 297 296 292 286 281 278 274 270 267 264 261 258 255 250 245 242 242 241 240 240 238 235 233 231 229 231 234 236 238 237 235 234 235 236 237 239 240 239 239 239 238 237 237 236 234 232 233 236 240 243 244 244 245 245 246 246 243 240 242 243 243 242 242 244 245 245 245 246 248 250 252 253 254
326 328 327 324 320 317 316 316 315 312 310 307 304 302 299 298 297 292 286 281 279 277 273 268 265 263 258 254 251 245 240 240 239 237 236 237 236 234 232 228 226 226 228 232 234 232 231 232 233 235 236 236 236 236 236 235 235 236 237 236 235 233 233 234 236 237 239 243 244 245 245 242 240 242 243 244 243 242 243 244 244 245 245 247 249 251 252 253
324 326 325 323 319 316 315 316 314 311 309 305 303 301 299 299 297 292 286 282 280 279 276 270 265 262 258 254 252 248 242 239 238 235 230 230 230 230 229 229 229 226 223 225 227 227 228 229 230 232 235 236 237 237 237 238 238 239 238 237 236 234 232 232 232 232 234 238 241 244 245 243 241 241 243 243 243 243 243 243 244 245 245 246 248 249 250 251
321 323 324 322 318 316 316 315 313 310 308 305 302 301 299 297 295 292 288 284 280 279 277 273 267 263 260 257 254 251 246 241 239 236 231 226 220 219 222 225 228 227 223 222 224 225 226 227 227 229 233 236 238 240 240 241 240 239 239 238 238 238 236 235 234 234 234 235 237 240 244 244 242 241 243 243 244 244 244 245 245 245 246 246 247 248 248 248
318 320 321 319 317 316 316 315 313 310 308 305 303 302 299 296 293 291 288 285 281 278 276 274 271 267 263 259 256 253 249 244 241 238 234 228 220 215 216 218 221 222 220 220 223 226 227 226 224 226 229 231 234 236 237 238 239 238 237 237 238 238 237 237 236 236 236 235 235 236 240 243 243 242 243 244 245 245 245 246 246 246 247 247 246 246 246 245
317 317 318 316 316 316 314 313 312 309 307 305 302 301 300 297 295 291 287 282 278 276 276 275 272 269 266 262 259 255 250 247 244 240 237 233 225 217 213 213 215 216 216 219 222 224 226 225 223 224 225 225 229 232 233 236 238 237 235 235 235 236 236 237 237 237 236 237 237 236 237 240 241 241 243 245 246 246 245 245 245 244 244 244 244 243 243 243
317 315 315 313 314 315 314 311 310 308 306 304 301 300 300 296 295 293 289 284 278 276 276 276 274 272 268 264 262 259 254 250 248 243 239 237 232 224 216 213 214 214 213 215 219 221 222 222 220 222 223 221 223 227 230 233 236 237 236 234 233 234 235 236 237 237 237 237 237 235 235 237 237 238 240 242 244 246 245 243 242 241 240 241 241 241 240 240
316 314 312 309 311 316 314 311 309 307 305 304 303 302 299 294 293 293 289 285 282 279 278 278 279 277 269 263 260 259 257 254 253 249 243 241 238 232 224 217 216 218 216 215 217 220 223 221 220 223 224 220 220 224 228 230 233 236 237 235 232 232 232 234 235 235 236 237 237 236 236 237 236 237 238 239 242 244 245 244 243 242 241 240 239 240 240 238
315 312 309 304 307 314 313 309 308 304 304 307 306 302 296 292 293 291 287 286 285 284 282 281 281 278 270 263 259 258 260 260 259 256 251 245 241 239 234 225 219 220 222 221 220 222 225 224 222 227 229 223 220 224 227 230 232 233 235 236 234 232 231 231 233 233 234 236 237 237 237 238 237 237 238 240 242 244 246 246 245 243 242 240 239 239 239 238
313 308 303 297 302 310 311 307 303 300 303 306 302 298 294 291 291 290 290 291 288 286 285 282 280 278 272 265 262 262 264 264 262 258 254 249 243 241 239 233 226 223 224 224 223 225 228 227 224 229 233 227 222 225 227 229 232 232 232 235 236 236 234 232 232 233 233 234 235 236 238 239 237 237 238 239 241 243 244 244 244 242 240 238 238 238 238 238
Height
5722 5723 5723 5724 5725 5725 5726 5727 5728 5729 5730 5731 5732 5733 5734 5735 5737 5738 5740 5741 5742 5744 5745 5746 5747 5748 5749 5750 5751 5752 5753 5754 5755 5756 5756 5757 5758 5760 5761 5762 5764 5765 5766 5767 5769 5771 5772 5774 5776 5778 5780 5782 5783 5785 5787 5788 5789 5790 5791 5792 5795 5799 5801 5802 5800 5800 5802 5806 5808 5806 5807 5808 5809 5811 5812 5814 5815 5816 5818 5819 5821 5821 5822 5823 5825 5827 5828 5829
5716 5716 5718 5718 5719 5720 5721 5722 5723 5723 5724 5725 5727 5728 5729 5730 5731 5733 5735 5736 5738 5739 5740 5742 5743 5744 5745 5746 5747 5748 5749 5750 5751 5752 5753 5754 5755 5756 5757 5758 5760 5761 5762 5764 5765 5767 5768 5770 5772 5773 5775 5777 5779 5780 5782 5784 5785 5786 5787 5789 5794 5796 5795 5793 5794 5796 5799 5801 5803 5803 5804 5805 5806 5807 5808 5810 5811 5812 5815 5816 5817 5817 5819 5821 5823 5824 5825 5826
5709 5710 5711 5713 5714 5714 5715 5716 5717 5718 5719 5720 5721 5722 5723 5724 5726 5727 5729 5731 5733 5734 5736 5737 5739 5740 5741 5742 5743 5744 5745 5746 5747 5748 5749 5750 5751 5752 5754 5755 5756 5757 5759 5760 5762 5763 5764 5766 5768 5769 5771 5772 5774 5776 5778 5780 5781 5782 5784 5787 5791 5790 5788 5788 5790 5792 5794 5796 5798 5799 5800 5800 5801 5802 5804 5806 5807 5809 5812 5812 5812 5814 5816 5819 5821 5821 5822 5822
5703 5704 5705 5706 5708 5709 5709 5710 5711 5712 5713 5714 5715 5716 5718 5719 5720 5722 5724 5725 5727 5729 5731 5732 5734 5736 5737 5738 5739 5740 5741 5742 5743 5744 5745 5746 5747 5749 5750 5751 5752 5753 5755 5756 5758 5759 5760 5762 5764 5766 5767 5768 5770 5772 5773 5776 5777 5778 5781 5785 5786 5783 5783 5785 5786 5788 5790 5791 5793 5794 5795 5796 5797 5798 5800 5801 5803 5806 5807 5807 5809 5812 5814 5817 5818 5818 5818 5819
5696 5697 5698 5700 5701 5702 5703 5704 5705 5706 5707 5708 5709 5710 5711 5713 5714 5716 5718 5720 5721 5724 5725 5727 5729 5730 5732 5733 5735 5736 5737 5738 5739 5740 5741 5742 5743 5744 5745 5747 5748 5749 5751 5752 5753 5755 5756 5758 5760 5762 5763 5765 5767 5768 5770 5771 5772 5775 5778 5780 5779 5778 5780 5781 5783 5784 5785 5786 5788 5790 5791 5792 5793 5795 5796 5798 5801 5802 5802 5803 5807 5810 5811 5813 5814 5815 5815 5816
5688 5689 5691 5693 5694 5695 5696 5698 5699 5700 5702 5703 5703 5704 5705 5707 5708 5710 5711 5714 5716 5717 5720 5721 5723 5725 5726 5728 5730 5731 5732 5733 5735 5736 5736 5738 5739 5740 5741 5743 5744 5746 5747 5748 5749 5751 5752 5754 5755 5757 5759 5761 5762 5763 5765 5766 5767 5770 5773 5774 5774 5774 5776 5778 5779 5780 5781 5782 5784 5786 5787 5788 5790 5792 5793 5795 5798 5798 5798 5801 5804 5806 5808 5810 5811 5811 5811 5813
5680 5681 5683 5685 5687 5688 5689 5690 5692 5694 5696 5697 5698 5699 5700 5701 5702 5704 5705 5707 5709 5711 5714 5715 5717 5719 5721 5722 5724 5726 5727 5728 5731 5732 5732 5733 5735 5736 5737 5738 5740 5741 5743 5744 5745 5747 5748 5750 5751 5752 5754 5755 5757 5758 5759 5761 5763 5766 5768 5769 5770 5771 5773 5774 5775 5777 5778 5779 5780 5782 5784 5785 5787 5788 5790 5793 5795 5794 5795 5797 5800 5803 5805 5807 5808 5807 5808 5810
5672 5673 5676 5678 5679 5681 5682 5683 5685 5687 5689 5691 5692 5693 5695 5696 5696 5698 5699 5701 5703 5705 5707 5709 5711 5713 5715 5717 5719 5721 5722 5723 5726 5727 5728 5729 5731 5732 5732 5734 5736 5737 5739 5740 5741 5742 5744 5746 5747 5748 5749 5751 5753 5754 5755 5757 5759 5762 5764 5765 5766 5767 5769 5770 5772 5773 5774 5775 5777 5779 5781 5782 5784 5785 5789 5791 5791 5790 5791 5794 5797 5799 5801 5803 5804 5805 5805 5807
5665 5666 5668 5669 5671 5674 5676 5677 5679 5680 5682 5684 5685 5687 5689 5690 5691 5692 5694 5695 5696 5698 5701 5703 5705 5707 5709 5711 5713 5716 5717 5718 5721 5723 5723 5725 5727 5728 5728 5730 5731 5733 5734 5736 5737 5739 5740 5742 5743 5744 5745 5747 5748 5750 5751 5752 5755 5758 5759 5760 5762 5763 5765 5767 5769 5770 5771 5772 5774 5776 5778 5779 5781 5783 5787 5788 5788 5788 5788 5790 5793 5796 5798 5800 5801 5801 5802 5804
5657 5659 5660 5662 5663 5666 5668 5670 5672 5674 5676 5677 5679 5681 5683 5684 5686 5687 5688 5689 5691 5692 5694 5697 5699 5701 5703 5705 5708 5710 5711 5714 5716 5718 5719 5720 5722 5724 5724 5726 5727 5729 5730 5732 5733 5735 5737 5738 5739 5740 5741 5743 5745 5746 5748 5749 5751 5754 5754 5756 5758 5759 5761 5763 5765 5766 5768 5769 5771 5773 5774 5776 5778 5780 5784 5785 5785 5785 5784 5786 5789 5793 5795 5796 5796 5797 5799 5801
5650 5651 5653 5655 5656 5658 5660 5663 5665 5667 5669 5670 5672 5674 5676 5678 5679 5681 5682 5683 5685 5686 5688 5690 5693 5695 5697 5700 5701 5703 5707 5708 5710 5712 5714 5715 5718 5719 5720 5722 5723 5724 5726 5728 5729 5731 5733 5734 5735 5736 5738 5740 5741 5743 5744 5745 5747 5749 5750 5752 5754 5755 5757 5759 5761 5762 5764 5765 5767 5769 5770 5772 5774 5779 5782 5782 5781 5779 5779 5782 5785 5790 5792 5792 5793 5794 5796 5797
5644 5644 5645 5647 5649 5650 5652 5654 5657 5659 5661 5663 5665 5667 5669 5670 5672 5674 5676 5677 5679 5680 5682 5684 5686 5689 5692 5694 5694 5697 5702 5702 5704 5707 5709 5711 5713 5715 5716 5717 5719 5720 5722 5723 5725 5727 5728 5730 5731 5732 5734 5736 5737 5738 5740 5741 5743 5745 5746 5748 5750 5752 5754 5756 5757 5758 5760 5762 5764 5764 5766 5769 5773 5777 5778 5777 5776 5775 5777 5780 5783 5786 5787 5789 5789 5790 5792 5793
5638 5638 5638 5640 5642 5643 5644 5646 5649 5651 5654 5656 5658 5660 5661 5663 5665 5667 5669 5671 5672 5674 5677 5678 5680 5683 5687 5687 5687 5692 5696 5696 5699 5701 5704 5706 5707 5710 5711 5713 5714 5716 5718 5719 5721 5722 5724 5725 5727 5728 5730 5732 5733 5734 5736 5737 5739 5741 5742 5744 5746 5747 5749 5753 5753 5755 5756 5758 5760 5759 5761 5767 5771 5773 5772 5772 5774 5774 5775 5778 5780 5782 5783 5785 5786 5786 5788 5789
5632 5632 5632 5633 5634 5635 5636 5638 5640 5643 5645 5648 5650 5652 5654 5656 5658 5660 5662 5664 5666 5668 5670 5673 5675 5677 5680 5681 5682 5686 5689 5691 5693 5695 5698 5700 5702 5704 5706 5708 5709 5711 5713 5714 5716 5718 5719 5720 5722 5723 5725 5727 5729 5730 5731 5733 5734 5736 5738 5740 5742 5743 5746 5749 5749 5750 5752 5753 5755 5754 5757 5764 5768 5767 5767 5769 5771 5771 5772 5773 5775 5778 5779 5780 5782 5783 5785 5786
5627 5626 5626 5626 5626 5627 5629 5631 5633 5635 5637 5639 5642 5644 5646 5648 5650 5653 5655 5657 5659 5661 5663 5667 5669 5672 5675 5675 5677 5680 5682 5685 5687 5689 5692 5694 5696 5698 5700 5702 5704 5706 5708 5709 5711 5713 5714 5715 5717 5718 5720 5723 5725 5726 5727 5728 5730 5731 5733 5735 5737 5739 5742 5744 5744 5746 5748 5749 5750 5750 5752 5760 5764 5762 5763 5765 5766 5767 5769 5769 5770 5773 5775 5776 5778 5779 5781 5783
5622 5621 5620 5619 5619 5620 5621 5623 5625 5627 5629 5631 5634 5636 5638 5640 5642 5644 5647 5649 5652 5654 5657 5659 5662 5666 5668 5669 5672 5674 5676 5679 5681 5684 5687 5688 5690 5692 5694 5696 5698 5700 5702 5703 5705 5707 5708 5710 5711 5713 5716 5718 5720 5722 5722 5723 5725 5726 5728 5730 5733 5735 5737 5739 5740 5741 5743 5743 5745 5746 5748 5753 5758 5758 5759 5760 5762 5763 5764 5765 5766 5768 5770 5773 5774 5776 5777 5779
5617 5616 5615 5614 5613 5613 5614 5615 5617 5619 5622 5624 5625 5628 5630 5632 5634 5635 5638 5641 5644 5647 5649 5652 5656 5659 5662 5664 5667 5668 5669 5673 5676 5679 5680 5682 5685 5687 5688 5690 5692 5694 5696 5698 5699 5701 5703 5704 5706 5708 5710 5713 5715 5716 5716 5716 5720 5722 5724 5727 5730 5732 5732 5734 5736 5737 5737 5738 5740 5741 5742 5746 5752 5754 5755 5755 5756 5758 5760 5761 5762 5764 5766 5768 5770 5772 5773 5774
5612 5611 5610 5608 5607 5606 5607 5607 5609 5611 5614 5616 5617 5619 5622 5623 5625 5627 5630 5633 5637 5640 5642 5646 5649 5651 5655 5658 5660 5661 5663 5667 5670 5672 5673 5676 5679 5680 5683 5684 5686 5688 5690 5691 5693 5695 5696 5698 5700 5702 5704 5707 5709 5710 5710 5713 5718 5721 5723 5724 5726 5727 5727 5729 5731 5731 5731 5732 5733 5734 5737 5741 5745 5748 5750 5751 5752 5753 5756 5757 5758 5760 5762 5764 5766 5768 5769 5770
5608 5606 5604 5603 5602 5601 5600 5599 5601 5603 5606 5608 5609 5611 5613 5614 5616 5619 5621 5625 5630 5633 5635 5638 5641 5644 5649 5652 5653 5655 5658 5660 5663 5665 5667 5670 5672 5674 5676 5678 5680 5682 5683 5685 5687 5689 5691 5692 5693 5696 5700 5703 5706 5708 5709 5712 5715 5717 5718 5717 5718 5719 5721 5723 5724 5725 5725 5725 5727 5729 5732 5736 5739 5742 5745 5747 5747 5749 5751 5753 5755 5757 5758 5759 5761 5763 5765 5767
5604 5601 5598 5597 5596 5595 5594 5592 5593 5595 5597 5600 5601 5602 5603 5605 5609 5610 5611 5617 5622 5625 5627 5630 5634 5638 5642 5645 5646 5648 5651 5653 5656 5659 5660 5663 5665 5667 5669 5672 5674 5675 5677 5679 5680 5682 5684 5684 5688 5694 5698 5700 5702 5704 5705 5706 5707 5708 5709 5709 5711 5712 5715 5717 5717 5719 5720 5720 5723 5725 5726 5730 5734 5737 5740 5741 5742 5745 5748 5749 5751 5753 5753 5754 5756 5758 5760 5763
5600 5597 5594 5592 5590 5590 5588 5586 5587 5587 5589 5591 5593 5593 5594 5597 5600 5600 5601 5608 5614 5617 5619 5623 5626 5631 5636 5637 5638 5642 5643 5646 5650 5652 5654 5657 5658 5660 5663 5665 5667 5669 5672 5673 5673 5676 5676 5679 5687 5692 5693 5694 5695 5696 5696 5698 5699 5700 5701 5703 5704 5706 5709 5711 5711 5713 5715 5715 5718 5720 5720 5724 5729 5731 5734 5735 5737 5742 5745 5745 5747 5748 5749 5750 5751 5753 5756 5759
5596 5593 5590 5587 5585 5584 5582 5581 5581 5581 5581 5583 5584 5586 5586 5588 5590 5591 5592 5598 5605 5609 5612 5616 5618 5623 5628 5628 5631 5634 5635 5640 5644 5645 5647 5649 5650 5653 5656 5658 5659 5662 5664 5663 5666 5669 5669 5675 5684 5686 5686 5686 5687 5688 5689 5691 5692 5693 5695 5696 5699 5702 5705 5705 5706 5708 5709 5710 5713 5714 5713 5718 5723 5724 5727 5731 5732 5737 5740 5739 5741 5744 5745 5746 5748 5749 5751 5753
5592 5589 5585 5582 5580 5578 5576 5575 5575 5575 5575 5575 5576 5578 5579 5580 5582 5583 5582 5587 5596 5601 5604 5607 5610 5614 5619 5620 5623 5624 5627 5635 5637 5637 5639 5641 5644 5646 5647 5650 5652 5653 5654 5656 5660 5661 5664 5673 5678 5677 5677 5677 5679 5681 5682 5683 5685 5687 5689 5691 5694 5699 5699 5699 5701 5702 5703 5704 5706 5707 5707 5712 5718 5719 5722 5726 5728 5732 5734 5734 5737 5739 5741 5743 5743 5745 5747 5749
5588 5585 5581 5578 5575 5573 5571 5569 5569 5570 5569 5569 5569 5570 5572 5572 5574 5574 5573 5575 5583 5593 5598 5599 5601 5606 5612 5612 5613 5615 5621 5626 5627 5630 5632 5634 5637 5638 5639 5644 5643 5644 5648 5652 5653 5653 5660 5667 5668 5668 5669 5669 5671 5673 5675 5676 5679 5682 5684 5686 5690 5693 5692 5693 5694 5695 5696 5697 5700 5702 5700 5705 5714 5715 5716 5720 5723 5727 5728 5729 5732 5734 5736 5738 5739 5741 5743 5745
5585 5581 5577 5574 5571 5569 5567 5564 5565 5565 5564 5564 5563 5564 5564 5565 5566 5566 5565 5564 5568 5582 5592 5592 5594 5599 5603 5602 5604 5610 5613 5614 5619 5624 5625 5626 5629 5629 5631 5633 5633 5638 5644 5645 5644 5646 5653 5658 5659 5660 5661 5662 5664 5666 5670 5671 5673 5676 5678 5682 5684 5684 5685 5686 5687 5688 5689 5690 5695 5697 5693 5698 5709 5710 5710 5715 5717 5721 5723 5724 5727 5728 5730 5733 5736 5738 5739 5739
5582 5577 5573 5570 5566 5565 5562 5560 5560 5559 5559 5558 5557 5559 5558 5558 5559 5557 5557 5555 5556 5571 5583 5587 5588 5590 5592 5595 5600 5603 5599 5604 5615 5616 5615 5618 5619 5619 5621 5623 5626 5632 5636 5636 5633 5637 5647 5652 5652 5652 5654 5656 5657 5660 5665 5666 5667 5668 5672 5677 5676 5676 5678 5679 5680 5681 5681 5684 5690 5690 5687 5691 5700 5703 5705 5709 5712 5715 5717 5720 5722 5723 5725 5729 5731 5732 5733 5734
5579 5574 5569 5565 5562 5560 5558 5556 5555 5555 5555 5552 5551 5552 5551 5552 5552 5550 5550 5546 5549 5562 5571 5577 5579 5579 5585 5590 5593 5592 5588 5599 5609 5605 5607 5611 5609 5609 5611 5615 5620 5623 5627 5626 5622 5631 5644 5645 5643 5645 5647 5648 5650 5656 5661 5660 5658 5661 5668 5670 5669 5670 5671 5672 5673 5673 5674 5678 5680 5683 5684 5684 5689 5696 5702 5704 5707 5710 5713 5716 5717 5718 5720 5724 5725 5726 5727 5729
5575 5571 5565 5561 5558 5555 5554 5552 5552 5551 5549 5548 5546 5545 5545 5547 5545 5544 5543 5538 5542 5552 5558 5566 5570 5572 5580 5583 5584 5583 5582 5592 5597 5594 5600 5600 5598 5600 5602 5607 5612 5614 5617 5614 5614 5629 5636 5633 5635 5637 5637 5639 5645 5652 5654 5650 5648 5655 5661 5660 5660 5662 5662 5664 5664 5664 5668 5668 5669 5677 5680 5677 5680 5691 5697 5699 5701 5705 5709 5712 5713 5714 5715 5717 5720 5721 5722 5723
5571 5567 5562 5558 5554 5551 5549 5547 5547 5546 5544 5544 5542 5540 5540 5540 5539 5539 5535 5530 5536 5548 5554 5558 5560 5565 5573 5574 5574 5575 5577 5582 5583 5586 5590 5587 5588 5592 5593 5599 5602 5602 5605 5604 5610 5620 5621 5622 5627 5627 5627 5634 5640 5642 5642 5640 5641 5648 5651 5651 5653 5654 5654 5656 5655 5657 5659 5657 5664 5675 5674 5670 5674 5685 5691 5693 5698 5702 5705 5708 5707 5709 5710 5711 5714 5716 5717 5718
5567 5562 5558 5553 5551 5549 5546 5542 5541 5540 5540 5539 5538 5537 5535 5534 5534 5532 5528 5527 5538 5548 5550 5547 5546 5552 5560 5563 5563 5564 5567 5571 5572 5576 5576 5574 5579 5581 5583 5589 5590 5591 5595 5596 5602 5608 5610 5614 5616 5617 5623 5628 5631 5632 5633 5632 5634 5640 5642 5643 5646 5645 5646 5648 5647 5651 5648 5648 5663 5669 5665 5664 5667 5678 5686 5688 5694 5699 5699 5701 5702 5704 5705 5707 5709 5710 5711 5713
5564 5559 5553 5548 5546 5545 5544 5540 5537 5535 5534 5533 5533 5532 5531 5529 5527 5525 5524 5530 5539 5540 5535 5533 5532 5535 5542 5547 5549 5551 5555 5558 5561 5564 5563 5565 5569 5569 5573 5578 5579 5583 5585 5586 5594 5600 5601 5603 5605 5611 5616 5619 5620 5622 5624 5625 5628 5632 5633 5636 5639 5636 5638 5639 5638 5642 5639 5645 5660 5660 5657 5658 5657 5673 5686 5684 5687 5691 5692 5695 5698 5699 5701 5702 5703 5705 5706 5707
5561 5556 5550 5544 5541 5540 5538 5536 5533 5531 5529 5528 5527 5526 5525 5523 5521 5520 5522 5527 5529 5524 5521 5522 5521 5520 5524 5530 5535 5540 5544 5547 5551 5554 5554 5556 5557 5559 5564 5568 5572 5574 5574 5579 5590 5592 5589 5593 5599 5603 5605 5608 5611 5613 5615 5617 5620 5623 5624 5628 5628 5625 5628 5629 5630 5633 5634 5642 5651 5649 5649 5650 5652 5670 5682 5679 5680 5683 5686 5690 5691 5694 5696 5696 5698 5699 5701 5701
5557 5552 5547 5540 5537 5535 5533 5530 5528 5527 5525 5523 5522 5520 5519 5517 5515 5516 5518 5518 5516 5514 5515 5516 5513 5511 5514 5518 5524 5530 5534 5537 5541 5543 5545 5546 5546 5551 5555 5557 5561 5563 5565 5574 5579 5577 5577 5583 5588 5590 5594 5601 5602 5603 5606 5610 5614 5615 5617 5620 5619 5617 5619 5621 5624 5627 5629 5636 5641 5640 5640 5641 5650 5667 5674 5674 5675 5676 5679 5683 5684 5688 5690 5692 5694 5694 5696 5697
5552 5548 5543 5537 5533 5530 5528 5525 5523 5521 5519 5518 5516 5515 5514 5511 5510 5510 5510 5509 5506 5507 5509 5507 5505 5506 5507 5510 5514 5518 5521 5525 5528 5531 5533 5534 5535 5540 5545 5548 5553 5556 5559 5563 5563 5564 5568 5572 5577 5583 5587 5591 5593 5596 5600 5605 5606 5604 5609 5611 5607 5609 5615 5616 5618 5619 5622 5629 5630 5629 5629 5633 5647 5662 5668 5671 5670 5669 5672 5675 5678 5681 5684 5687 5689 5690 5691 5692
5548 5543 5538 5533 5529 5526 5522 5519 5517 5515 5514 5512 5511 5509 5508 5505 5503 5501 5501 5500 5498 5499 5500 5498 5499 5501 5501 5502 5504 5508 5512 5513 5517 5520 5521 5522 5525 5531 5537 5541 5545 5547 5549 5551 5552 5557 5558 5561 5571 5577 5576 5580 5584 5587 5591 5592 5590 5592 5597 5595 5595 5606 5612 5608 5607 5609 5614 5616 5616 5617 5620 5630 5645 5656 5661 5664 5663 5664 5666 5667 5671 5674 5678 5682 5684 5685 5685 5686
5543 5538 5532 5527 5524 5521 5517 5514 5511 5509 5507 5506 5504 5503 5501 5499 5496 5493 5492 5492 5489 5489 5491 5490 5491 5491 5490 5494 5497 5500 5503 5502 5505 5508 5509 5511 5515 5520 5526 5530 5535 5538 5540 5543 5545 5547 5547 5549 5560 5564 5563 5569 5574 5575 5578 5578 5578 5582 5583 5583 5594 5604 5601 5595 5598 5603 5605 5603 5605 5611 5617 5629 5640 5644 5652 5657 5657 5660 5661 5661 5665 5667 5671 5675 5677 5679 5680 5681
5539 5534 5527 5521 5518 5515 5512 5509 5506 5503 5501 5499 5497 5496 5494 5492 5489 5486 5484 5483 5480 5480 5481 5480 5481 5479 5478 5483 5488 5491 5492 5492 5496 5498 5499 5502 5503 5508 5515 5521 5527 5529 5532 5537 5537 5536 5535 5538 5546 5550 5551 5558 5562 5562 5565 5565 5567 5570 5572 5583 5594 5589 5584 5588 5591 5593 5595 5594 5598 5606 5613 5624 5630 5633 5644 5652 5652 5655 5656 5656 5659 5661 5663 5667 5669 5672 5673 5674
5534 5530 5522 5516 5512 5509 5505 5503 5500 5497 5494 5492 5489 5487 5486 5484 5482 5479 5476 5474 5473 5473 5472 5470 5471 5472 5469 5470 5475 5480 5482 5484 5488 5488 5489 5492 5494 5499 5508 5514 5519 5523 5527 5529 5526 5526 5528 5529 5535 5540 5541 5546 5548 5548 5550 5552 5557 5562 5568 5578 5578 5569 5574 5582 5580 5581 5587 5587 5591 5599 5606 5614 5619 5626 5640 5647 5647 5649 5651 5652 5654 5654 5656 5658 5660 5664 5666 5668
5528 5525 5517 5509 5505 5502 5498 5496 5493 5490 5486 5484 5481 5478 5477 5476 5475 5472 5468 5467 5466 5464 5463 5462 5462 5462 5461 5459 5463 5469 5473 5475 5478 5478 5478 5482 5487 5492 5499 5504 5508 5511 5516 5515 5512 5517 5522 5520 5523 5528 5531 5534 5534 5534 5538 5545 5551 5554 5559 5564 5562 5560 5568 5572 5570 5575 5581 5581 5585 5593 5595 5601 5613 5625 5635 5640 5641 5642 5644 5645 5646 5647 5648 5649 5652 5656 5659 5662
5519 5518 5513 5504 5498 5495 5491 5488 5486 5483 5479 5476 5473 5470 5468 5467 5467 5465 5461 5459 5458 5456 5454 5454 5452 5450 5452 5452 5454 5459 5463 5464 5466 5468 5468 5472 5480 5484 5487 5490 5492 5495 5501 5501 5501 5508 5512 5510 5511 5516 5518 5519 5519 5525 5535 5543 5545 5545 5548 5552 5552 5555 5560 5561 5562 5568 5573 5573 5578 5583 5584 5593 5610 5621 5625 5630 5632 5632 5635 5638 5639 5641 5642 5642 5645 5648 5652 5655
5510 5510 5506 5499 5492 5488 5483 5481 5479 5475 5471 5469 5465 5462 5459 5457 5457 5458 5454 5450 5449 5447 5445 5445 5442 5440 5441 5444 5447 5450 5451 5452 5455 5457 5459 5465 5471 5474 5477 5479 5481 5484 5489 5491 5493 5498 5501 5501 5504 5506 5505 5506 5514 5524 5532 5534 5532 5535 5540 5543 5547 5550 5553 5553 5554 5560 5566 5567 5571 5574 5575 5586 5604 5610 5614 5621 5623 5624 5628 5631 5634 5635 5636 5636 5639 5641 5644 5647
5502 5501 5498 5492 5485 5480 5475 5474 5472 5467 5464 5461 5457 5453 5451 5447 5448 5449 5447 5441 5439 5438 5437 5435 5434 5432 5431 5433 5438 5441 5440 5441 5443 5444 5449 5458 5463 5465 5470 5473 5472 5475 5478 5479 5484 5492 5495 5494 5494 5494 5495 5499 5507 5513 5516 5518 5521 5525 5528 5532 5538 5540 5541 5543 5545 5552 5557 5557 5563 5566 5565 5577 5595 5601 5606 5612 5615 5618 5621 5624 5627 5628 5629 5630 5632 5634 5636 5638
5494 5492 5490 5485 5478 5471 5466 5464 5463 5459 5456 5452 5448 5445 5442 5439 5439 5440 5438 5433 5429 5429 5428 5427 5426 5425 5423 5422 5426 5431 5431 5429 5430 5435 5440 5447 5454 5459 5463 5465 5465 5467 5469 5470 5475 5483 5485 5481 5481 5484 5487 5490 5495 5498 5501 5505 5509 5510 5513 5522 5529 5529 5533 5536 5536 5542 5544 5543 5554 5556 5553 5570 5590 5595 5597 5602 5606 5612 5613 5615 5618 5619 5622 5623 5624 5626 5628 5630
5486 5484 5482 5477 5471 5464 5458 5455 5452 5449 5447 5443 5439 5437 5433 5431 5432 5431 5428 5426 5422 5419 5419 5419 5418 5416 5415 5413 5413 5418 5421 5419 5420 5428 5432 5435 5443 5450 5452 5455 5458 5460 5461 5461 5464 5469 5468 5467 5472 5477 5477 5478 5480 5482 5485 5489 5495 5498 5505 5515 5520 5521 5525 5524 5525 5531 5531 5533 5545 5544 5543 5565 5585 5588 5589 5592 5597 5602 5603 5605 5608 5610 5613 5615 5616 5619 5621 5622
5475 5475 5473 5469 5463 5457 5453 5449 5443 5438 5436 5433 5430 5428 5425 5423 5423 5421 5419 5418 5415 5410 5408 5409 5410 5407 5405 5404 5403 5405 5409 5410 5411 5417 5423 5428 5436 5440 5439 5442 5448 5451 5454 5453 5454 5456 5455 5457 5464 5466 5466 5467 5468 5471 5477 5485 5492 5494 5498 5504 5506 5509 5513 5514 5519 5521 5518 5527 5535 5530 5536 5562 5578 5579 5580 5581 5585 5591 5593 5595 5598 5601 5605 5608 5610 5612 5614 5615
5460 5461 5461 5457 5451 5446 5443 5442 5437 5429 5425 5422 5419 5419 5418 5415 5414 5412 5410 5409 5407 5403 5398 5399 5401 5399 5397 5397 5396 5395 5398 5401 5400 5404 5412 5420 5428 5429 5428 5433 5438 5442 5446 5446 5445 5446 5446 5448 5452 5454 5456 5459 5462 5467 5476 5482 5484 5482 5486 5493 5497 5501 5506 5508 5508 5506 5512 5524 5524 5521 5535 5555 5565 5569 5569 5569 5574 5580 5583 5586 5589 5593 5597 5600 5603 5604 5606 5607
5447 5448 5449 5446 5439 5432 5429 5429 5426 5421 5416 5411 5407 5407 5409 5407 5405 5404 5402 5400 5398 5395 5390 5390 5392 5391 5390 5390 5389 5387 5388 5390 5390 5393 5399 5408 5417 5421 5421 5425 5429 5432 5435 5436 5436 5438 5436 5438 5443 5444 5444 5447 5451 5457 5463 5465 5466 5469 5477 5483 5487 5491 5495 5495 5493 5499 5512 5514 5509 5518 5533 5541 5552 5561 5559 5559 5564 5569 5574 5578 5581 5586 5589 5591 5594 5596 5597 5599
5434 5433 5435 5435 5430 5423 5418 5416 5414 5410 5408 5404 5398 5396 5396 5396 5396 5395 5393 5391 5389 5387 5384 5382 5383 5384 5383 5382 5380 5378 5379 5380 5380 5384 5389 5394 5403 5410 5412 5414 5418 5421 5423 5424 5427 5428 5424 5428 5435 5433 5431 5437 5443 5447 5451 5454 5454 5458 5464 5470 5475 5479 5481 5482 5484 5494 5503 5499 5500 5520 5528 5527 5542 5552 5549 5551 5554 5557 5565 5569 5571 5576 5579 5580 5584 5586 5588 5591
5425 5419 5418 5419 5417 5414 5410 5406 5403 5399 5398 5396 5391 5389 5387 5385 5386 5386 5383 5380 5380 5381 5378 5374 5376 5378 5376 5374 5372 5370 5371 5372 5372 5375 5380 5381 5387 5395 5400 5403 5406 5409 5410 5412 5417 5417 5413 5419 5425 5421 5421 5430 5436 5438 5443 5445 5444 5446 5451 5459 5465 5468 5470 5474 5478 5486 5491 5489 5496 5514 5515 5515 5532 5541 5541 5544 5544 5546 5554 5558 5561 5566 5568 5570 5575 5577 5580 5583
5416 5411 5406 5402 5402 5404 5400 5395 5393 5388 5387 5387 5384 5382 5380 5376 5376 5378 5375 5371 5371 5373 5372 5369 5368 5370 5368 5366 5364 5361 5363 5365 5364 5367 5372 5372 5373 5379 5385 5392 5396 5396 5398 5401 5404 5405 5404 5409 5414 5412 5413 5422 5428 5430 5433 5434 5434 5436 5440 5446 5454 5458 5460 5464 5468 5475 5480 5479 5489 5502 5501 5506 5524 5533 5533 5535 5536 5539 5545 5548 5553 5557 5559 5563 5567 5569 5571 5574
5407 5403 5399 5391 5389 5393 5390 5385 5383 5379 5376 5377 5375 5373 5371 5369 5369 5369 5365 5365 5366 5365 5365 5363 5361 5360 5359 5358 5357 5356 5359 5361 5358 5360 5363 5362 5364 5367 5370 5380 5387 5387 5389 5392 5394 5395 5395 5398 5405 5404 5402 5412 5421 5422 5422 5424 5425 5425 5429 5436 5443 5447 5450 5454 5459 5465 5470 5473 5481 5488 5487 5498 5519 5526 5525 5529 5533 5536 5540 5543 5546 5549 5552 5557 5560 5561 5563 5564
5398 5394 5391 5383 5378 5382 5382 5375 5372 5370 5369 5369 5367 5364 5362 5361 5362 5360 5356 5358 5360 5358 5358 5356 5353 5351 5350 5350 5352 5355 5356 5355 5352 5352 5351 5350 5354 5356 5358 5366 5374 5376 5378 5381 5384 5385 5384 5388 5397 5395 5391 5401 5414 5413 5413 5416 5412 5412 5422 5431 5436 5439 5443 5448 5452 5457 5463 5467 5470 5472 5478 5497 5514 5516 5517 5525 5527 5527 5531 5533 5535 5538 5543 5547 5550 5553 5554 5554